Tracking 30417 objects as of 16-May-2025
HD Live streaming from Space Station
objects crossing your sky now

STARLINK-5841

Track STARLINK-5841 now!
10-day predictions
STARLINK-5841 is classified as:


NORAD ID: 56493
Int'l Code: 2023-064AX
Perigee: 577.2 km
Apogee: 581.2 km
Inclination: 70.0 °
Period: 96.1 minutes
Semi major axis: 6950 km
RCS: Unknown
Launch date: May 10, 2023
Source: United States (US)
Launch site: AIR FORCE WESTERN TEST RANGE (AFWTR)
Your satellite tracking list
Your tracking list is empty




NASA's NSSDC Master Catalog

Two Line Element Set (TLE):
1 56493U 23064AX  25136.33132943 -.00000330  00000-0 -19867-4 0  9990
2 56493  69.9990 114.2181 0002923 264.3897  95.6929 14.98327643112184
Source of the keplerian elements: AFSPC